MFX656 ZWWW-UZNU

Flight info

Callsign MFX656
Flight time N/A
Altitude 32100
Route NIXE7W NIXER W119 GOBOK A343 RULAD/K0852F320 M610 ARBOL Z621 ELAHA N147 EVTEV EVTE2S
Aircraft B763/H-SDE3FGHIM3RWXY/LB1

Departure

Time 2026-04-24 15:20
Airport Ürümqi Tianshan International Airport (ZWWW)

Arrival

Time N/A
Airport UZNU
Time Latitude Longitude Altitude Speed Heading
2026-04-24 14:40 43.90777 87.49942 2147 ft 0 kts 163°
2026-04-24 15:02 43.90785 87.49939 2146 ft 2 kts 163°
2026-04-24 15:02 43.90799 87.49933 2146 ft 2 kts 163°
2026-04-24 15:03 43.90813 87.49927 2146 ft 2 kts 163°
2026-04-24 15:03 43.90828 87.49921 2146 ft 2 kts 163°
2026-04-24 15:03 43.90841 87.49912 2146 ft 2 kts 127°
2026-04-24 15:03 43.90847 87.49893 2146 ft 2 kts 98°
2026-04-24 15:04 43.90847 87.49873 2146 ft 2 kts 70°
2026-04-24 15:04 43.90841 87.49854 2146 ft 1 kts 72°
2026-04-24 15:04 43.90840 87.49848 2146 ft 0 kts 73°
2026-04-24 15:07 43.90841 87.49850 2146 ft 1 kts 73°
2026-04-24 15:07 43.90854 87.49912 2146 ft 9 kts 73°
2026-04-24 15:07 43.90871 87.49995 2146 ft 7 kts 73°
2026-04-24 15:08 43.90885 87.50058 2146 ft 5 kts 73°
2026-04-24 15:08 43.90896 87.50106 2146 ft 5 kts 65°
2026-04-24 15:08 43.90942 87.50126 2146 ft 11 kts 347°
2026-04-24 15:08 43.91029 87.50116 2146 ft 11 kts 38°
2026-04-24 15:09 43.91066 87.50133 2146 ft 6 kts 356°
2026-04-24 15:09 43.91140 87.50105 2146 ft 16 kts 343°
2026-04-24 15:09 43.91272 87.50053 2145 ft 20 kts 344°
2026-04-24 15:09 43.91388 87.50003 2145 ft 6 kts 342°
2026-04-24 15:10 43.91430 87.49985 2145 ft 7 kts 342°
2026-04-24 15:10 43.91475 87.49934 2145 ft 7 kts 290°
2026-04-24 15:10 43.91472 87.49869 2145 ft 6 kts 254°
2026-04-24 15:10 43.91450 87.49766 2145 ft 16 kts 252°
2026-04-24 15:11 43.91409 87.49581 2145 ft 21 kts 253°
2026-04-24 15:11 43.91369 87.49387 2145 ft 19 kts 253°
2026-04-24 15:11 43.91332 87.49218 2145 ft 17 kts 253°
2026-04-24 15:11 43.91355 87.49126 2145 ft 8 kts 332°
2026-04-24 15:12 43.91413 87.49098 2145 ft 11 kts 342°
2026-04-24 15:12 43.91698 87.48978 2144 ft 28 kts 342°
2026-04-24 15:12 43.91830 87.48924 2144 ft 14 kts 342°
2026-04-24 15:13 43.91920 87.48886 2144 ft 12 kts 343°
2026-04-24 15:13 43.91995 87.48855 2144 ft 10 kts 343°
2026-04-24 15:13 43.92058 87.48829 2143 ft 10 kts 343°
2026-04-24 15:13 43.92151 87.48790 2143 ft 14 kts 343°
2026-04-24 15:14 43.92240 87.48753 2143 ft 12 kts 343°
2026-04-24 15:14 43.92313 87.48722 2143 ft 9 kts 343°
2026-04-24 15:14 43.92370 87.48700 2143 ft 8 kts 343°
2026-04-24 15:14 43.92448 87.48668 2143 ft 14 kts 343°
2026-04-24 15:15 43.92523 87.48695 2142 ft 10 kts 61°
2026-04-24 15:15 43.92542 87.48777 2142 ft 7 kts 73°
2026-04-24 15:15 43.92558 87.48850 2142 ft 9 kts 73°
2026-04-24 15:15 43.92586 87.48982 2142 ft 17 kts 73°
2026-04-24 15:16 43.92619 87.49137 2142 ft 15 kts 73°
2026-04-24 15:16 43.92647 87.49269 2142 ft 12 kts 73°
2026-04-24 15:16 43.92670 87.49377 2142 ft 10 kts 73°
2026-04-24 15:16 43.92705 87.49429 2142 ft 6 kts
2026-04-24 15:17 43.92728 87.49424 2142 ft 0 kts 343°
2026-04-24 15:17 43.92736 87.49421 2142 ft 5 kts 343°
2026-04-24 15:17 43.92791 87.49398 2142 ft 8 kts 342°
2026-04-24 15:18 43.92833 87.49351 2142 ft 8 kts 287°
2026-04-24 15:18 43.92827 87.49290 2142 ft 0 kts 253°
2026-04-24 15:18 43.92819 87.49254 2142 ft 13 kts 253°
2026-04-24 15:19 43.92745 87.48904 2142 ft 62 kts 253°
2026-04-24 15:19 43.92573 87.48096 2142 ft 109 kts 253°
2026-04-24 15:19 43.92315 87.46880 2143 ft 150 kts 253°
2026-04-24 15:19 43.91986 87.45330 2149 ft 186 kts 254°
2026-04-24 15:20 43.91620 87.43520 2448 ft 198 kts 255°
2026-04-24 15:20 43.91249 87.41726 3059 ft 195 kts 253°
2026-04-24 15:20 43.90844 87.39907 3497 ft 201 kts 253°
2026-04-24 15:20 43.90433 87.38032 3958 ft 205 kts 253°
2026-04-24 15:21 43.90026 87.36144 4457 ft 207 kts 253°
2026-04-24 15:21 43.89613 87.34237 4957 ft 209 kts 253°
2026-04-24 15:21 43.89189 87.32282 5385 ft 215 kts 253°
2026-04-24 15:21 43.88747 87.30235 5687 ft 229 kts 253°
2026-04-24 15:22 43.88269 87.28072 6022 ft 242 kts 249°
2026-04-24 15:22 43.87672 87.25830 6340 ft 256 kts 255°
2026-04-24 15:22 43.87216 87.23427 6971 ft 256 kts 255°
2026-04-24 15:23 43.86253 87.18710 8226 ft 256 kts 254°
2026-04-24 15:23 43.85678 87.13908 9349 ft 256 kts 285°
2026-04-24 15:23 43.86496 87.11767 9871 ft 257 kts 315°
2026-04-24 15:24 43.91450 87.08997 11478 ft 261 kts 342°
2026-04-24 15:25 43.94941 87.07588 12557 ft 263 kts 342°
2026-04-24 15:25 43.98490 87.06183 13514 ft 267 kts 342°
2026-04-24 15:26 44.04180 87.03951 14373 ft 307 kts 342°
2026-04-24 15:27 44.10558 87.00477 15186 ft 353 kts 318°
2026-04-24 15:27 44.14880 86.92082 17315 ft 362 kts 303°
2026-04-24 15:28 44.16536 86.78649 19944 ft 383 kts 251°
2026-04-24 15:29 44.13415 86.72575 21170 ft 400 kts 227°
2026-04-24 15:30 44.07119 86.64811 22962 ft 409 kts 227°
2026-04-24 15:31 43.98488 86.54094 25235 ft 419 kts 227°
2026-04-24 15:32 43.89747 86.43269 27374 ft 426 kts 228°
2026-04-24 15:33 43.80801 86.32237 29289 ft 433 kts 227°
2026-04-24 15:33 43.73974 86.23843 30505 ft 442 kts 228°
2026-04-24 15:34 43.69358 86.18187 31366 ft 446 kts 227°
2026-04-24 15:35 43.64059 86.08277 32314 ft 415 kts 254°
2026-04-24 15:35 43.62981 86.00635 32342 ft 407 kts 272°
2026-04-24 15:36 43.63317 85.92770 32326 ft 413 kts 278°
2026-04-24 15:36 43.64212 85.81031 32304 ft 408 kts 277°
2026-04-24 15:37 43.64760 85.73263 32302 ft 409 kts 277°
2026-04-24 15:37 43.65346 85.65462 32315 ft 409 kts 278°
2026-04-24 15:38 43.65942 85.57681 32336 ft 408 kts 278°
2026-04-24 15:38 43.66543 85.49877 32344 ft 408 kts 278°
2026-04-24 15:39 43.67141 85.42074 32338 ft 409 kts 278°
2026-04-24 15:39 43.67732 85.34282 32336 ft 409 kts 277°
2026-04-24 15:40 43.68325 85.26429 32324 ft 408 kts 277°
2026-04-24 15:40 43.68907 85.18655 32306 ft 407 kts 276°
2026-04-24 15:41 43.68492 85.10855 32349 ft 414 kts 259°
2026-04-24 15:41 43.66044 85.03566 32373 ft 427 kts 244°
2026-04-24 15:42 43.62891 84.96611 32359 ft 424 kts 243°
2026-04-24 15:42 43.59725 84.89755 32395 ft 425 kts 244°
2026-04-24 15:43 43.56519 84.82879 32388 ft 426 kts 243°
2026-04-24 15:43 43.53309 84.76040 32378 ft 424 kts 243°
2026-04-24 15:44 43.50106 84.69233 32363 ft 424 kts 243°
2026-04-24 15:44 43.46902 84.62444 32354 ft 424 kts 243°
2026-04-24 15:45 43.43694 84.55669 32344 ft 424 kts 243°
2026-04-24 15:45 43.40469 84.48867 32366 ft 423 kts 243°
2026-04-24 15:46 43.37288 84.42033 32382 ft 420 kts 248°
2026-04-24 15:46 43.35529 84.34611 32412 ft 409 kts 266°
2026-04-24 15:47 43.35673 84.26872 32417 ft 406 kts 276°
2026-04-24 15:47 43.36250 84.19139 32422 ft 406 kts 277°
2026-04-24 15:48 43.36886 84.11464 32423 ft 405 kts 277°
2026-04-24 15:48 43.37544 84.03799 32429 ft 405 kts 277°
2026-04-24 15:49 43.38217 83.96059 32429 ft 407 kts 277°
2026-04-24 15:49 43.38882 83.88396 32430 ft 406 kts 277°
2026-04-24 15:50 43.39547 83.80715 32406 ft 404 kts 277°
2026-04-24 15:50 43.40210 83.73019 32391 ft 407 kts 277°
2026-04-24 15:51 43.40865 83.65337 32382 ft 404 kts 277°
2026-04-24 15:51 43.41517 83.57637 32383 ft 404 kts 277°
2026-04-24 15:52 43.42162 83.49963 32367 ft 406 kts 277°
2026-04-24 15:52 43.42804 83.42262 32342 ft 405 kts 277°
2026-04-24 15:53 43.43307 83.34566 32341 ft 406 kts 273°
2026-04-24 15:53 43.43586 83.26809 32342 ft 407 kts 274°
2026-04-24 15:54 43.43870 83.19034 32334 ft 406 kts 274°
2026-04-24 15:54 43.44149 83.11253 32323 ft 406 kts 273°
2026-04-24 15:55 43.44423 83.03518 32306 ft 406 kts 273°
2026-04-24 15:55 43.44690 82.95763 32295 ft 407 kts 272°
2026-04-24 15:56 43.44957 82.87965 32274 ft 405 kts 273°
2026-04-24 15:56 43.45213 82.80264 32260 ft 406 kts 272°
2026-04-24 15:57 43.45466 82.72495 32234 ft 407 kts 273°
2026-04-24 15:57 43.45714 82.64761 32226 ft 405 kts 273°
2026-04-24 15:58 43.45956 82.56992 32225 ft 406 kts 273°
2026-04-24 15:58 43.46193 82.49281 32207 ft 404 kts 272°
2026-04-24 15:59 43.46425 82.41544 32199 ft 407 kts 273°
2026-04-24 15:59 43.46653 82.33742 32184 ft 406 kts 272°
2026-04-24 16:00 43.46874 82.25973 32186 ft 406 kts 272°
2026-04-24 16:00 43.47091 82.18216 32182 ft 406 kts 272°
2026-04-24 16:01 43.47301 82.10480 32178 ft 406 kts 272°
2026-04-24 16:01 43.47501 82.02932 32169 ft 406 kts 272°
2026-04-24 16:02 43.47705 81.95126 32164 ft 405 kts 272°
2026-04-24 16:02 43.47897 81.87437 32179 ft 404 kts 272°
2026-04-24 16:03 43.48089 81.79691 32180 ft 404 kts 271°
2026-04-24 16:03 43.48273 81.71918 32188 ft 407 kts 271°
2026-04-24 16:04 43.48445 81.64193 32184 ft 404 kts 271°
2026-04-24 16:04 43.48606 81.56499 32193 ft 404 kts 271°
2026-04-24 16:05 43.48842 81.44842 32203 ft 405 kts 271°
2026-04-24 16:06 43.49064 81.33317 32210 ft 404 kts 271°
2026-04-24 16:07 43.49275 81.21671 32212 ft 404 kts 270°
2026-04-24 16:07 43.49475 81.10095 32201 ft 405 kts 270°
2026-04-24 16:08 43.49661 80.98509 32176 ft 403 kts 270°
2026-04-24 16:09 43.49838 80.86923 32172 ft 404 kts 270°
2026-04-24 16:09 43.49948 80.79222 32156 ft 405 kts 270°
2026-04-24 16:11 43.50550 80.59885 32076 ft 400 kts 271°
2026-04-24 16:11 43.50840 80.52248 32056 ft 401 kts 272°
2026-04-24 16:12 43.51270 80.40646 32043 ft 405 kts 271°
2026-04-24 16:13 43.51688 80.29050 32063 ft 405 kts 270°
2026-04-24 16:14 43.52226 80.13602 32043 ft 404 kts 271°
2026-04-24 16:14 43.52616 80.02000 32036 ft 407 kts 270°
2026-04-24 16:15 43.52997 79.90359 32022 ft 405 kts 270°
2026-04-24 16:16 43.53363 79.78794 32023 ft 406 kts 270°
2026-04-24 16:17 43.53952 79.59409 32009 ft 405 kts 270°
2026-04-24 16:18 43.54400 79.43868 32001 ft 405 kts 270°
2026-04-24 16:19 43.54721 79.32266 32020 ft 406 kts 269°
2026-04-24 16:20 43.55032 79.20602 32013 ft 404 kts 269°
2026-04-24 16:20 43.55328 79.09022 32041 ft 406 kts 269°
2026-04-24 16:21 43.55614 78.97391 32043 ft 405 kts 269°
2026-04-24 16:22 43.55795 78.89778 32059 ft 406 kts 269°
2026-04-24 16:22 43.56057 78.78342 32067 ft 404 kts 269°
2026-04-24 16:23 43.56228 78.70611 32078 ft 406 kts 269°
2026-04-24 16:24 43.56476 78.58975 32090 ft 405 kts 269°
2026-04-24 16:24 43.56634 78.51178 32042 ft 404 kts 269°
2026-04-24 16:25 43.56787 78.43447 32051 ft 404 kts 269°
2026-04-24 16:25 43.56933 78.35747 32056 ft 406 kts 269°
2026-04-24 16:26 43.57145 78.24075 32062 ft 405 kts 268°
2026-04-24 16:27 43.57345 78.12420 32321 ft 412 kts 268°
2026-04-24 16:27 43.57411 78.08485 32937 ft 410 kts 268°
2026-04-24 16:27 43.57474 78.04564 33413 ft 410 kts 268°
2026-04-24 16:27 43.57537 78.00664 34009 ft 406 kts 268°
2026-04-24 16:28 43.57599 77.96755 34043 ft 406 kts 268°
2026-04-24 16:28 43.57773 77.85143 34062 ft 404 kts 268°
2026-04-24 16:29 43.57883 77.77433 34070 ft 404 kts 268°
2026-04-24 16:30 43.58086 77.61972 34066 ft 401 kts 268°
2026-04-24 16:30 43.58180 77.54255 34041 ft 404 kts 268°
2026-04-24 16:31 43.58369 77.46558 34065 ft 403 kts 269°
2026-04-24 16:31 43.58642 77.38818 34042 ft 405 kts 270°
2026-04-24 16:32 43.58908 77.31089 34090 ft 403 kts 269°
2026-04-24 16:32 43.59166 77.23389 34057 ft 403 kts 269°
2026-04-24 16:33 43.59416 77.15681 34080 ft 402 kts 268°
2026-04-24 16:33 43.59500 77.07925 34090 ft 403 kts 267°
2026-04-24 16:34 43.59566 77.00944 34067 ft 412 kts 267°
2026-04-24 16:34 43.59641 76.92938 34096 ft 418 kts 267°
2026-04-24 16:35 43.59714 76.84978 34086 ft 415 kts 268°
2026-04-24 16:35 43.59777 76.76993 34057 ft 415 kts 267°
2026-04-24 16:36 43.59830 76.69064 34068 ft 415 kts 267°
2026-04-24 16:36 43.59877 76.61079 34066 ft 416 kts 267°
2026-04-24 16:37 43.59918 76.53124 34045 ft 415 kts 267°
2026-04-24 16:37 43.59954 76.45203 34063 ft 416 kts 267°
2026-04-24 16:38 43.59984 76.37231 34046 ft 415 kts 267°
2026-04-24 16:38 43.60136 76.29418 34055 ft 416 kts 270°
2026-04-24 16:39 43.60532 76.21415 34057 ft 418 kts 269°
2026-04-24 16:39 43.60913 76.13424 34056 ft 416 kts 270°
2026-04-24 16:40 43.61284 76.05454 34033 ft 415 kts 269°
2026-04-24 16:40 43.61649 75.97519 34034 ft 415 kts 269°
2026-04-24 16:41 43.62008 75.89560 34050 ft 415 kts 269°
2026-04-24 16:41 43.62360 75.81645 34047 ft 415 kts 269°
2026-04-24 16:42 43.62706 75.73740 34040 ft 415 kts 269°
2026-04-24 16:42 43.63048 75.65767 34049 ft 414 kts 269°
2026-04-24 16:43 43.63382 75.57857 34050 ft 415 kts 269°
2026-04-24 16:43 43.63714 75.49874 34038 ft 415 kts 269°
2026-04-24 16:44 43.64036 75.41967 34040 ft 414 kts 269°
2026-04-24 16:44 43.64350 75.34080 34044 ft 414 kts 268°
2026-04-24 16:45 43.64665 75.26077 34059 ft 414 kts 268°
2026-04-24 16:45 43.64970 75.18169 34052 ft 411 kts 268°
2026-04-24 16:46 43.65269 75.10290 34048 ft 412 kts 268°
2026-04-24 16:46 43.65563 75.02387 34045 ft 412 kts 268°
2026-04-24 16:47 43.65851 74.94521 34025 ft 411 kts 268°
2026-04-24 16:47 43.66132 74.86657 34030 ft 412 kts 268°
2026-04-24 16:48 43.66411 74.78731 34031 ft 412 kts 268°
2026-04-24 16:48 43.66681 74.70868 34036 ft 412 kts 268°
2026-04-24 16:49 43.66948 74.62972 34030 ft 410 kts 268°
2026-04-24 16:49 43.67207 74.55112 34040 ft 412 kts 268°
2026-04-24 16:50 43.67464 74.47208 34021 ft 411 kts 268°
2026-04-24 16:50 43.67712 74.39346 34026 ft 412 kts 268°
2026-04-24 16:51 43.67957 74.31464 34039 ft 409 kts 266°
2026-04-24 16:51 43.68194 74.23643 34035 ft 410 kts 267°
2026-04-24 16:52 43.68432 74.15790 34033 ft 411 kts 266°
2026-04-24 16:52 43.68671 74.07882 34019 ft 410 kts 266°
2026-04-24 16:53 43.68903 74.00017 34026 ft 410 kts 266°
2026-04-24 16:53 43.69131 73.92145 34020 ft 411 kts 266°
2026-04-24 16:54 43.69353 73.84230 34023 ft 412 kts 266°
2026-04-24 16:54 43.69570 73.76355 34023 ft 410 kts 266°
2026-04-24 16:55 43.69333 73.68588 34031 ft 407 kts 260°
2026-04-24 16:55 43.68915 73.60763 34029 ft 410 kts 261°
2026-04-24 16:56 43.68503 73.52931 34025 ft 407 kts 261°
2026-04-24 16:56 43.68091 73.45131 34032 ft 410 kts 261°
2026-04-24 16:57 43.67677 73.37300 34026 ft 411 kts 261°
2026-04-24 16:57 43.67255 73.29451 34041 ft 410 kts 260°
2026-04-24 16:58 43.66826 73.21556 34035 ft 410 kts 261°
2026-04-24 16:58 43.66395 73.13693 34035 ft 411 kts 261°
2026-04-24 16:59 43.65959 73.05856 34034 ft 411 kts 260°
2026-04-24 17:00 43.65295 72.94084 34030 ft 410 kts 260°
2026-04-24 17:00 43.64614 72.82270 34031 ft 414 kts 260°
2026-04-24 17:01 43.63922 72.70435 34015 ft 412 kts 260°
2026-04-24 17:02 43.63216 72.58602 34016 ft 415 kts 260°
2026-04-24 17:02 43.62736 72.50645 34010 ft 413 kts 260°
2026-04-24 17:03 43.62008 72.38784 34012 ft 415 kts 260°
2026-04-24 17:04 43.61511 72.30800 34020 ft 416 kts 259°
2026-04-24 17:04 43.60760 72.18887 34022 ft 416 kts 259°
2026-04-24 17:05 43.60252 72.10948 34033 ft 416 kts 259°
2026-04-24 17:06 43.59477 71.98994 34032 ft 417 kts 259°
2026-04-24 17:06 43.58687 71.87024 34029 ft 417 kts 259°
2026-04-24 17:07 43.58156 71.79077 34032 ft 417 kts 259°
2026-04-24 17:08 43.57080 71.63210 34026 ft 417 kts 259°
2026-04-24 17:08 43.56530 71.55238 34020 ft 417 kts 259°
2026-04-24 17:09 43.55414 71.39280 34020 ft 420 kts 259°
2026-04-24 17:10 43.54276 71.23338 34029 ft 419 kts 259°
2026-04-24 17:12 43.51923 70.91344 34030 ft 422 kts 259°